When you browse on this site, cookies collect data to enhance your experience and personalize the content and advertising you see.
Visit our Privacy Policy to learn more. By continuing to use the site, you agree to this use of cookies and data.
  • In Portugal
  • List of Countries
  • For 7 days
  • Water Temperature
  • Satellite Maps
  • Weather Map
  • Weather Widgets
  • user-avatar
    Login

    Hourly Weather Yampol

    Today, 22 April, Monday

    Time Temperature Precipitation Wind Pressure Humidity
    00:00 +9°C° 0 mm 2 mps 755 mmHg 59%
    01:00 +8°C° 0 mm 2 mps 755 mmHg 61%
    02:00 +9°C° 0 mm 1 mps 755 mmHg 64%
    03:00 +8°C° 0 mm 1 mps 755 mmHg 63%
    04:00 +7°C° 0 mm 2 mps 756 mmHg 63%
    05:00 +7°C° 0 mm 2 mps 756 mmHg 63%
    06:00 +8°C° 0 mm 2 mps 756 mmHg 59%
    07:00 +10°C° 0 mm 3 mps 756 mmHg 55%
    08:00 +11°C° 0 mm 3 mps 757 mmHg 53%
    09:00 +12°C° 0 mm 4 mps 757 mmHg 48%
    10:00 +13°C° 0 mm 5 mps 757 mmHg 42%
    11:00 +14°C° 0 mm 5 mps 757 mmHg 36%
    12:00 +14°C° 0 mm 5 mps 757 mmHg 36%
    13:00 +15°C° 0 mm 5 mps 757 mmHg 35%
    14:00 +15°C° 0 mm 5 mps 757 mmHg 35%
    15:00 +15°C° 0 mm 5 mps 757 mmHg 36%
    16:00 +15°C° 0 mm 5 mps 757 mmHg 37%
    17:00 +14°C° 0 mm 5 mps 757 mmHg 39%
    18:00 +13°C° 0 mm 4 mps 757 mmHg 44%
    19:00 +12°C° 0 mm 3 mps 757 mmHg 49%
    20:00 +10°C° 0 mm 3 mps 758 mmHg 54%
    21:00 +10°C° 0 mm 3 mps 758 mmHg 55%
    22:00 +10°C° 0 mm 3 mps 758 mmHg 55%
    23:00 +10°C° 0 mm 2 mps 759 mmHg 55%

    Tomorrow, 23 April, Tuesday

    Time Temperature Precipitation Wind Pressure Humidity
    00:00 +9°C° 0 mm 2 mps 759 mmHg 57%
    01:00 +8°C° 0 mm 2 mps 759 mmHg 59%
    02:00 +8°C° 0 mm 2 mps 759 mmHg 61%
    03:00 +7°C° 0 mm 2 mps 759 mmHg 62%
    04:00 +7°C° 0 mm 2 mps 759 mmHg 63%
    05:00 +7°C° 0 mm 2 mps 759 mmHg 64%
    06:00 +8°C° 0 mm 2 mps 760 mmHg 60%
    07:00 +10°C° 0 mm 2 mps 760 mmHg 56%
    08:00 +11°C° 0 mm 3 mps 760 mmHg 51%
    09:00 +13°C° 0 mm 4 mps 760 mmHg 46%
    10:00 +14°C° 0 mm 5 mps 760 mmHg 42%
    11:00 +16°C° 0 mm 6 mps 760 mmHg 37%
    12:00 +16°C° 0 mm 6 mps 760 mmHg 36%
    13:00 +16°C° 0 mm 6 mps 760 mmHg 36%
    14:00 +17°C° 0 mm 6 mps 759 mmHg 36%
    15:00 +16°C° 0 mm 6 mps 759 mmHg 38%
    16:00 +16°C° 0 mm 5 mps 759 mmHg 40%
    17:00 +16°C° 0 mm 5 mps 759 mmHg 42%
    18:00 +14°C° 0 mm 4 mps 759 mmHg 46%
    19:00 +13°C° 0 mm 4 mps 759 mmHg 50%
    20:00 +12°C° 0 mm 3 mps 759 mmHg 54%
    21:00 +11°C° 0 mm 3 mps 759 mmHg 56%
    22:00 +10°C° 0 mm 3 mps 759 mmHg 57%
    23:00 +9°C° 0 mm 3 mps 760 mmHg 59%

    Day after tomorrow, 24 April, Wednesday

    Time Temperature Precipitation Wind Pressure Humidity
    00:00 +9°C° 0 mm 3 mps 760 mmHg 60%
    01:00 +8°C° 0 mm 3 mps 760 mmHg 61%
    02:00 +8°C° 0 mm 3 mps 760 mmHg 62%
    03:00 +7°C° 0 mm 3 mps 760 mmHg 62%
    04:00 +7°C° 0 mm 3 mps 760 mmHg 62%
    05:00 +7°C° 0 mm 3 mps 759 mmHg 62%
    06:00 +8°C° 0 mm 4 mps 760 mmHg 58%
    07:00 +9°C° 0 mm 5 mps 760 mmHg 54%
    08:00 +10°C° 0 mm 6 mps 760 mmHg 49%
    09:00 +13°C° 0 mm 6 mps 760 mmHg 46%
    10:00 +14°C° 0 mm 7 mps 760 mmHg 42%
    11:00 +15°C° 0 mm 7 mps 760 mmHg 39%
    12:00 +16°C° 0 mm 7 mps 760 mmHg 39%
    13:00 +17°C° 0 mm 7 mps 759 mmHg 40%
    14:00 +17°C° 0 mm 6 mps 759 mmHg 40%
    15:00 +17°C° 0 mm 6 mps 759 mmHg 41%
    16:00 +17°C° 0 mm 6 mps 759 mmHg 42%
    17:00 +17°C° 0 mm 6 mps 759 mmHg 43%
    18:00 +15°C° 0 mm 5 mps 759 mmHg 48%
    19:00 +14°C° 0 mm 4 mps 759 mmHg 52%
    20:00 +12°C° 0 mm 3 mps 759 mmHg 57%
    21:00 +11°C° 0 mm 3 mps 759 mmHg 59%
    22:00 +11°C° 0 mm 3 mps 759 mmHg 60%
    23:00 +10°C° 0 mm 3 mps 759 mmHg 62%

    25 April, Thursday

    Time Temperature Precipitation Wind Pressure Humidity
    00:00 +10°C° 0 mm 2 mps 760 mmHg 64%
    01:00 +9°C° 0 mm 2 mps 760 mmHg 66%
    02:00 +9°C° 0 mm 2 mps 760 mmHg 67%
    03:00 +8°C° 0 mm 2 mps 760 mmHg 69%
    04:00 +8°C° 0 mm 2 mps 760 mmHg 71%
    05:00 +8°C° 0 mm 2 mps 760 mmHg 73%
    06:00 +9°C° 0 mm 3 mps 760 mmHg 68%
    07:00 +11°C° 0 mm 4 mps 760 mmHg 64%
    08:00 +13°C° 0 mm 4 mps 760 mmHg 59%
    09:00 +14°C° 0 mm 5 mps 760 mmHg 55%
    10:00 +16°C° 0 mm 6 mps 760 mmHg 51%
    11:00 +17°C° 0 mm 6 mps 759 mmHg 47%
    12:00 +19°C° 0 mm 6 mps 759 mmHg 46%
    13:00 +19°C° 0 mm 6 mps 759 mmHg 44%
    14:00 +20°C° 0 mm 6 mps 758 mmHg 43%
    15:00 +20°C° 0 mm 6 mps 758 mmHg 44%
    16:00 +20°C° 0 mm 6 mps 758 mmHg 45%
    17:00 +20°C° 0 mm 5 mps 757 mmHg 46%
    18:00 +17°C° 0 mm 5 mps 757 mmHg 50%
    19:00 +15°C° 0 mm 4 mps 757 mmHg 55%
    20:00 +14°C° 0 mm 4 mps 757 mmHg 60%
    21:00 +13°C° 0 mm 4 mps 757 mmHg 62%
    22:00 +13°C° 0 mm 4 mps 757 mmHg 63%
    23:00 +12°C° 0 mm 4 mps 757 mmHg 65%

    26 April, Friday

    Time Temperature Precipitation Wind Pressure Humidity
    00:00 +11°C° 0 mm 3 mps 757 mmHg 68%
    01:00 +10°C° 0 mm 3 mps 757 mmHg 71%
    02:00 +10°C° 0 mm 3 mps 757 mmHg 74%
    03:00 +9°C° 0 mm 3 mps 757 mmHg 76%
    04:00 +9°C° 0 mm 3 mps 756 mmHg 77%
    05:00 +8°C° 0 mm 3 mps 756 mmHg 78%
    06:00 +10°C° 0 mm 4 mps 756 mmHg 71%
    07:00 +11°C° 0 mm 4 mps 756 mmHg 65%
    08:00 +13°C° 0 mm 5 mps 756 mmHg 58%
    09:00 +14°C° 0 mm 5 mps 756 mmHg 53%
    10:00 +16°C° 0 mm 6 mps 756 mmHg 48%
    11:00 +19°C° 0 mm 6 mps 756 mmHg 44%
    12:00 +19°C° 0 mm 6 mps 755 mmHg 42%
    13:00 +20°C° 0 mm 6 mps 755 mmHg 41%
    14:00 +21°C° 0 mm 6 mps 755 mmHg 39%
    15:00 +21°C° 0 mm 6 mps 754 mmHg 40%
    16:00 +21°C° 0 mm 6 mps 754 mmHg 41%
    17:00 +21°C° 0 mm 6 mps 754 mmHg 42%
    18:00 +19°C° 0 mm 5 mps 754 mmHg 46%
    19:00 +17°C° 0 mm 4 mps 754 mmHg 51%
    20:00 +16°C° 0 mm 3 mps 754 mmHg 55%
    21:00 +14°C° 0 mm 4 mps 754 mmHg 56%
    22:00 +14°C° 0 mm 4 mps 753 mmHg 57%
    23:00 +13°C° 0 mm 4 mps 753 mmHg 58%

    27 April, Saturday

    Time Temperature Precipitation Wind Pressure Humidity
    00:00 +12°C° 0 mm 4 mps 753 mmHg 60%
    01:00 +12°C° 0 mm 3 mps 753 mmHg 62%
    02:00 +11°C° 0 mm 3 mps 753 mmHg 64%
    03:00 +11°C° 0 mm 3 mps 753 mmHg 65%
    04:00 +10°C° 0 mm 3 mps 753 mmHg 67%
    05:00 +10°C° 0 mm 3 mps 753 mmHg 69%
    06:00 +11°C° 0 mm 4 mps 753 mmHg 64%
    07:00 +13°C° 0 mm 4 mps 753 mmHg 59%
    08:00 +15°C° 0 mm 5 mps 753 mmHg 54%
    09:00 +16°C° 0 mm 5 mps 753 mmHg 50%
    10:00 +19°C° 0 mm 6 mps 752 mmHg 45%
    11:00 +20°C° 0 mm 6 mps 752 mmHg 41%
    12:00 +21°C° 0 mm 6 mps 752 mmHg 40%
    13:00 +21°C° 0 mm 6 mps 752 mmHg 39%
    14:00 +22°C° 0 mm 6 mps 751 mmHg 38%
    15:00 +22°C° 0 mm 5 mps 751 mmHg 39%
    16:00 +22°C° 0 mm 5 mps 751 mmHg 41%
    17:00 +22°C° 0 mm 5 mps 751 mmHg 42%
    18:00 +20°C° 0 mm 4 mps 751 mmHg 47%
    19:00 +18°C° 0 mm 3 mps 751 mmHg 53%
    20:00 +17°C° 0 mm 2 mps 751 mmHg 58%
    21:00 +16°C° 0 mm 2 mps 752 mmHg 61%
    22:00 +14°C° 0 mm 3 mps 752 mmHg 65%
    23:00 +14°C° 0 mm 3 mps 752 mmHg 68%
    Show more